Theta_e
339 337 338 336 335 333 333 335 336 334 333 333 331 331 328 326 321 317 317 319 322 325 329 327 329 334 335 336 336 338 337 340 343 341 345 347 343 343 343 342 341 342 342 342 343 344 345 345 345 346 346 346 346 346 345 344 345 347 347 348 349 349 349 346 345 345 344 343 342 342 342 340 337 337
341 339 337 338 336 337 334 333 334 334 333 332 332 331 330 328 326 321 320 320 322 323 326 329 328 329 334 335 336 336 336 342 343 338 338 343 343 339 339 341 341 341 341 340 340 341 342 343 343 342 341 341 342 343 344 345 345 347 347 347 348 348 347 346 344 344 343 342 342 341 340 337 337 336
343 340 337 336 336 337 336 335 335 336 333 332 331 331 331 329 328 326 322 319 323 327 326 328 331 330 331 334 336 336 337 341 342 338 335 337 341 340 336 337 338 338 338 337 337 337 337 337 337 336 336 336 337 339 341 344 345 346 346 346 347 347 346 345 344 343 343 342 342 340 338 336 335 334
344 342 340 338 336 336 335 336 336 336 337 334 331 331 331 329 329 328 324 322 325 326 327 327 329 331 330 332 333 334 336 339 345 338 336 335 342 339 334 335 334 335 335 335 335 334 333 332 333 334 335 336 338 339 340 342 343 343 343 344 344 345 345 343 342 342 342 342 339 337 336 334 335 334
344 343 342 340 338 337 336 336 336 336 337 336 335 334 331 329 329 328 326 324 325 326 328 329 330 331 330 329 332 333 334 335 337 341 338 336 336 336 333 331 334 334 333 333 333 333 332 331 331 332 333 335 337 339 341 342 341 340 340 341 339 339 341 341 339 341 340 339 338 337 335 334 333 333
346 344 342 342 341 337 336 336 335 336 336 337 335 334 334 331 330 330 328 326 325 326 325 328 331 332 331 330 330 332 332 332 335 336 338 338 337 336 335 333 332 334 333 331 330 330 330 330 330 331 332 333 334 336 338 339 337 336 337 336 335 335 334 335 337 339 338 337 337 335 335 334 333 332
347 344 343 343 343 341 337 336 336 336 335 336 337 336 335 334 333 331 330 327 326 325 327 327 329 331 331 330 331 332 333 335 334 334 335 337 338 338 337 336 335 336 333 331 330 329 329 329 330 329 330 331 331 333 333 332 333 333 332 331 333 334 332 332 334 336 335 335 336 335 335 333 332 332
348 346 344 344 344 342 339 338 337 336 335 335 336 336 336 335 334 333 332 331 328 327 326 327 329 330 330 332 332 332 334 333 333 334 335 336 337 337 338 337 336 337 335 333 331 330 329 328 328 328 328 328 327 328 328 328 329 329 329 328 329 329 329 328 330 333 331 331 332 334 334 332 332 329
349 347 346 346 344 343 341 340 338 337 335 335 335 335 336 336 335 335 334 333 331 329 327 329 328 330 331 332 332 332 332 331 332 332 333 334 335 336 337 338 338 337 335 334 333 332 330 329 328 328 327 327 327 326 326 326 327 326 326 326 326 327 327 327 325 327 327 326 327 326 328 330 330 329
350 348 347 347 345 343 342 342 341 339 337 336 335 334 335 336 336 335 334 334 333 331 331 330 330 327 330 330 331 332 332 331 330 330 332 333 335 335 335 336 338 339 338 337 336 334 333 332 329 329 329 328 327 326 326 326 325 324 323 321 321 324 325 325 325 324 324 324 324 324 324 326 327 327
351 350 349 348 346 345 344 343 343 342 340 338 336 336 335 335 335 335 334 334 333 332 332 332 331 331 330 330 331 331 333 332 332 331 329 329 333 334 334 334 336 338 339 338 338 337 336 335 334 327 326 327 327 327 326 325 324 323 321 320 319 320 321 321 322 322 321 322 321 320 319 321 325 326
352 352 351 349 348 347 346 344 344 343 341 340 338 338 336 335 334 334 334 333 333 332 332 332 333 332 331 328 331 331 329 329 331 331 330 329 329 331 333 334 334 335 336 336 338 337 336 334 333 327 327 328 328 327 327 328 327 325 322 320 322 322 320 320 320 320 319 319 318 317 317 316 320 323
353 353 352 351 350 349 347 341 340 340 339 342 339 339 337 336 334 334 333 333 332 332 332 332 333 332 331 331 331 330 329 330 332 329 331 330 331 330 330 333 336 336 334 335 336 336 337 336 335 334 332 331 331 329 329 330 331 327 321 320 322 323 322 320 319 320 319 318 317 316 315 315 316 319
353 354 354 354 349 341 339 337 335 333 333 334 340 342 339 338 336 334 333 332 332 332 331 332 332 331 331 332 332 332 333 333 333 330 330 329 331 326 330 332 333 336 335 333 332 335 337 336 335 334 333 334 336 332 330 329 329 329 325 322 322 322 322 320 319 319 318 317 316 315 314 315 316 316
352 353 354 354 352 345 339 340 333 332 331 331 330 333 336 337 339 336 334 333 333 332 332 332 332 331 331 332 333 333 333 333 333 333 332 331 330 328 327 327 330 336 336 333 332 333 336 336 334 334 333 334 333 333 332 331 329 325 325 323 322 322 322 322 321 319 318 317 315 315 313 314 315 314
353 352 352 353 354 354 352 350 347 337 331 329 329 329 330 331 332 334 338 336 334 333 332 332 332 332 331 332 333 333 333 333 332 332 332 330 330 329 328 328 328 331 338 334 332 332 335 334 334 333 334 333 333 333 331 328 327 325 324 324 323 322 322 322 322 322 319 318 317 317 316 315 316 315
353 353 352 352 353 354 345 348 350 349 346 331 326 327 328 328 328 328 329 331 339 338 335 334 333 333 334 332 333 335 334 333 331 330 331 331 331 331 330 330 331 329 336 334 332 331 333 332 333 332 334 334 333 333 330 327 326 325 323 323 323 322 322 322 322 321 319 318 317 316 316 315 315 314
353 353 352 351 351 352 353 352 351 350 349 349 345 338 334 335 335 328 326 325 326 332 338 337 335 337 337 335 336 337 336 334 333 332 331 332 331 331 331 334 334 332 337 334 332 329 330 332 332 331 334 335 334 333 330 326 325 324 323 322 321 321 321 321 321 320 319 318 316 315 314 312 312 312
353 353 353 353 352 352 352 352 351 351 350 349 348 347 345 341 340 340 339 337 335 335 336 337 339 340 340 339 339 339 338 337 337 336 335 334 334 334 335 334 334 333 336 335 332 328 332 332 331 332 334 334 333 334 328 325 324 324 321 321 321 321 320 320 320 319 318 318 316 314 313 311 309 308
354 354 354 353 352 352 352 344 333 339 350 350 348 347 347 347 346 344 336 333 335 339 340 340 340 341 342 337 343 343 340 338 338 339 339 337 334 331 331 330 332 333 335 336 334 330 331 332 332 332 335 334 332 333 333 327 323 323 321 321 320 319 318 318 319 318 318 317 316 314 311 307 306 306
353 353 354 353 353 353 352 342 332 329 333 348 348 348 347 348 347 347 348 332 327 328 326 326 328 329 329 329 327 327 327 334 337 337 334 333 334 330 329 330 330 331 333 336 336 333 331 332 332 332 333 333 333 333 333 334 325 322 321 320 320 318 317 317 317 317 317 317 316 314 311 307 306 307
353 354 347 354 354 353 353 337 329 329 332 343 347 348 347 347 346 347 349 347 339 326 324 325 326 326 327 327 327 327 327 325 326 336 333 336 335 332 332 330 331 332 334 335 338 333 332 334 333 332 328 330 331 333 334 334 332 325 320 318 318 317 316 316 315 316 316 316 315 312 309 307 306 307
352 353 350 345 343 348 346 333 329 326 331 345 347 347 347 346 346 348 349 348 348 344 339 337 336 336 334 335 334 336 327 327 337 334 336 338 336 333 333 332 331 329 331 336 339 332 332 332 332 332 324 327 331 333 334 334 333 331 329 325 322 317 317 316 314 313 314 315 313 310 308 307 307 308
350 352 352 348 330 326 327 326 324 323 322 342 349 349 348 347 346 350 351 350 347 345 346 346 345 342 342 342 340 339 339 339 339 336 336 336 337 335 335 334 333 330 332 335 340 334 334 334 332 333 332 326 324 324 329 331 332 331 330 329 325 320 320 318 315 313 312 312 310 309 308 306 308 308
349 350 351 352 338 326 322 320 319 319 318 322 344 349 349 349 349 343 350 344 342 342 343 343 344 345 345 345 344 342 341 341 340 340 336 337 338 337 336 335 334 333 335 338 335 337 332 334 332 332 331 331 327 319 322 330 330 330 330 330 328 324 322 321 320 318 313 310 307 307 307 307 307 309
349 350 351 351 341 328 323 320 317 315 315 316 329 338 327 328 327 338 343 342 338 338 339 340 341 342 342 343 344 344 343 343 343 342 342 339 338 339 339 338 336 334 334 339 330 337 334 333 333 331 330 329 329 328 318 319 324 327 328 328 330 325 324 322 321 319 315 312 310 307 308 307 308 308
350 352 352 350 337 325 318 314 313 313 312 313 323 317 316 316 317 323 333 340 337 337 337 337 337 338 339 339 339 340 342 343 344 344 344 343 342 340 340 341 341 340 341 341 338 339 336 334 336 332 330 330 329 326 324 322 318 321 321 323 325 323 323 322 320 318 315 312 312 308 306 306 307 308
352 352 353 342 320 315 311 311 311 311 313 323 315 312 314 315 317 327 331 335 336 335 333 332 333 334 336 336 337 337 339 341 343 344 345 345 344 343 342 341 344 343 342 342 341 338 338 336 335 335 334 331 328 326 323 324 320 320 319 320 320 319 320 321 320 319 317 314 312 310 309 308 309 308
348 316 309 311 314 314 314 314 316 318 316 310 308 309 311 318 326 330 331 335 335 333 332 331 332 333 334 336 337 338 338 339 340 340 342 344 344 345 344 343 342 342 342 342 342 340 338 337 336 335 334 333 330 329 327 323 318 318 320 317 315 317 317 317 317 316 315 312 311 311 310 310 310 312
314 314 316 317 321 324 326 334 336 337 336 326 322 318 319 328 331 332 333 334 333 332 332 332 332 334 335 336 337 337 337 335 335 336 337 339 340 342 341 340 340 342 342 342 342 341 340 339 338 336 334 333 332 330 329 324 317 319 321 320 320 319 318 316 316 316 317 313 312 312 312 312 312 314
331 332 332 331 323 323 322 323 322 323 327 330 332 332 332 332 333 333 334 335 334 332 332 332 332 333 334 335 334 333 333 333 334 335 334 334 335 337 339 338 337 339 341 342 343 342 341 339 339 337 333 332 332 332 330 326 320 317 319 321 320 315 316 315 315 314 315 314 313 313 312 311 312 319
334 335 332 331 334 334 334 333 333 334 334 332 330 331 331 330 330 332 332 334 334 334 335 334 335 334 335 334 334 335 334 334 334 335 334 334 334 335 336 334 334 336 337 339 340 341 343 340 339 338 337 334 331 331 327 324 321 318 318 320 321 320 318 315 314 314 315 313 310 310 309 309 310 313
333 333 332 332 332 331 330 329 328 326 325 324 324 325 324 324 323 323 321 321 323 327 329 329 330 329 330 330 331 331 332 332 333 334 334 335 334 335 335 332 332 333 333 334 336 337 339 339 339 339 337 336 334 330 324 319 319 318 318 317 317 314 315 317 316 313 311 310 308 307 307 309 310 313
330 328 326 325 324 324 324 323 322 322 321 322 322 322 319 321 321 321 322 322 323 324 324 324 324 324 324 325 326 327 327 328 328 328 326 328 330 329 330 330 331 333 333 333 334 334 335 336 336 337 336 331 326 327 325 322 317 317 318 317 315 313 314 315 313 311 311 309 307 305 306 307 309 310
323 322 322 321 322 322 322 321 320 320 320 321 321 321 321 321 321 321 322 322 321 322 322 322 323 323 323 323 324 324 324 325 327 328 328 329 329 329 329 328 329 331 331 331 332 334 333 332 330 321 318 318 318 317 323 322 318 315 315 314 313 311 311 312 311 310 309 307 307 306 306 308 309 309
321 321 321 320 319 319 320 320 320 321 321 321 322 322 321 320 318 319 320 320 322 322 321 321 320 321 321 321 321 322 322 322 323 324 324 325 326 327 328 328 328 329 331 331 332 333 332 329 324 319 315 313 313 311 313 319 320 316 313 311 311 311 311 311 311 309 308 307 307 307 305 305 308 309
321 321 321 320 319 319 320 320 321 321 322 321 322 322 320 319 318 318 318 318 320 320 320 320 321 320 320 319 319 318 319 320 320 322 323 325 326 327 327 327 327 328 328 330 332 332 327 323 322 321 316 314 312 311 311 314 312 315 315 311 310 311 310 309 308 308 308 308 306 306 305 306 306 307
321 321 320 320 320 320 320 321 321 321 321 321 320 319 317 316 316 316 317 316 317 317 317 318 317 317 317 317 317 317 318 319 319 320 321 324 325 326 327 327 327 326 325 321 320 322 321 320 319 320 319 315 314 309 306 310 312 312 311 313 310 311 312 310 308 307 307 307 307 306 304 304 305 306
321 320 320 319 320 320 320 320 321 320 320 320 318 316 315 314 314 315 315 315 315 316 316 316 315 315 315 316 316 316 317 317 317 316 317 317 319 320 320 318 316 315 315 314 315 315 315 314 313 313 313 312 310 309 310 309 309 312 311 310 312 311 311 310 308 308 307 306 305 305 306 306 309 311
320 320 319 320 318 317 318 320 320 321 320 319 316 313 313 314 312 313 314 314 314 315 315 314 315 313 314 315 315 316 315 315 316 316 316 315 315 316 316 316 315 314 313 313 313 313 313 313 313 312 312 313 313 314 313 312 312 313 313 311 308 312 312 311 309 308 307 307 306 305 304 304 304 304
320 320 319 318 318 318 318 319 320 320 318 315 312 314 312 312 311 313 312 314 314 314 314 314 314 313 313 314 314 314 313 314 314 315 315 314 313 313 313 313 314 314 313 312 312 312 312 313 317 316 317 315 315 315 312 309 308 309 311 312 306 308 310 312 311 309 307 307 306 305 304 303 302 302
320 320 319 320 320 319 318 318 318 318 317 314 311 311 311 311 312 313 314 314 313 314 313 313 313 313 313 313 313 312 312 312 312 313 313 313 313 313 313 313 312 313 312 311 311 313 316 318 319 317 315 314 313 309 307 307 307 308 308 310 312 308 308 308 309 310 310 308 305 302 301 300 301 302
320 319 320 319 318 318 318 318 317 316 315 312 310 310 311 310 310 312 312 312 312 312 312 312 312 313 313 313 313 312 312 312 312 313 313 313 313 312 312 312 313 313 313 313 314 314 315 316 316 316 315 313 311 310 307 307 306 306 307 309 310 311 311 310 307 308 309 310 309 308 307 304 301 299
318 318 317 316 318 317 317 317 317 316 315 312 311 310 311 310 311 310 309 309 310 311 311 311 312 312 313 313 313 312 313 312 312 312 312 312 313 313 313 313 313 314 314 314 313 313 314 314 314 314 312 311 311 308 306 306 307 309 309 309 309 310 310 310 309 309 311 311 311 309 309 308 307 308
316 316 316 315 315 316 317 316 317 317 316 314 309 309 310 308 309 308 308 308 309 310 310 310 311 312 312 313 312 312 312 311 312 313 313 313 313 313 314 314 314 314 313 313 312 311 312 311 311 312 311 311 311 309 309 309 307 307 306 307 307 308 308 309 308 307 308 309 308 307 308 309 309 307
Wind_Speed
6 5 5 6 6 6 4 4 5 5 3 3 5 6 8 7 5 3 3 5 6 4 7 6 5 8 8 8 6 7 8 9 9 8 8 8 8 11 16 17 16 16 16 16 16 16 16 16 16 16 16 16 15 15 14 13 12 11 11 9 9 9 9 8 7 6 6 6 5 5 5 6 7 7
5 5 5 5 6 5 4 6 5 4 5 5 5 6 5 7 7 5 5 7 5 4 3 6 5 3 8 8 7 7 9 10 11 8 9 9 9 14 16 17 17 17 17 17 16 16 16 16 16 16 16 16 16 15 14 13 13 11 11 11 10 10 10 8 8 8 8 7 7 6 6 6 7 7
6 6 7 6 6 5 5 5 5 4 4 5 5 5 5 5 5 6 4 4 5 5 6 6 6 5 6 7 8 7 8 9 11 10 9 9 12 15 13 16 17 18 18 17 17 16 16 16 16 16 16 15 15 15 14 14 13 13 12 12 10 10 10 10 9 9 9 9 8 7 7 7 7 7
6 7 7 7 7 6 5 5 5 6 5 4 5 5 5 5 5 4 5 6 11 4 6 5 4 6 6 5 7 8 7 7 12 9 9 11 13 10 9 14 17 17 18 18 18 17 17 17 17 16 16 16 16 15 15 14 14 14 13 12 11 11 11 11 9 9 9 9 8 7 8 8 7 6
6 8 8 8 8 5 6 7 6 5 5 4 5 4 5 5 4 5 6 7 10 5 4 4 4 3 3 4 7 8 8 7 7 9 9 9 8 9 9 9 14 18 18 18 18 18 18 18 17 17 17 17 16 16 16 15 15 14 14 13 12 12 12 11 10 10 9 9 8 8 8 8 7 6
7 7 8 9 8 6 8 7 7 7 6 5 5 5 6 6 6 5 6 8 6 12 1 4 3 4 3 6 3 9 9 8 6 8 9 8 9 9 9 8 9 16 18 18 19 19 19 18 18 19 18 18 17 17 16 16 15 14 14 13 13 12 12 12 11 11 10 9 9 9 9 8 6 6
8 8 9 10 8 5 7 8 9 6 6 5 6 7 5 6 6 6 7 6 8 9 9 4 5 5 4 7 6 6 7 7 7 8 9 9 8 8 9 9 9 13 17 18 18 19 19 19 20 19 19 18 18 17 17 16 15 14 14 14 13 13 13 13 13 12 11 10 10 10 9 7 6 6
9 10 9 10 9 8 8 9 8 7 6 6 7 6 6 6 7 6 6 8 8 7 8 5 6 4 5 6 5 4 4 6 6 7 8 6 8 8 8 10 9 12 17 18 18 19 20 20 20 20 19 18 18 17 17 16 15 14 14 14 14 14 14 14 14 13 12 11 11 10 9 8 7 5
10 10 11 12 9 8 10 9 9 8 8 8 7 7 6 7 6 5 6 8 7 7 9 8 3 3 4 4 3 3 5 5 5 5 7 8 9 9 9 8 10 13 15 16 17 18 19 19 20 20 19 18 18 17 17 16 15 15 15 15 15 14 15 15 14 13 12 12 12 11 9 7 7 6
9 10 11 11 9 9 11 12 10 9 10 8 8 9 8 7 6 7 6 6 7 7 9 8 8 2 5 4 5 4 5 6 6 6 7 6 7 7 8 10 9 7 7 7 9 13 15 17 19 19 18 18 18 17 16 16 15 15 15 16 15 15 15 15 13 12 12 12 12 11 9 8 7 7
10 10 11 10 10 11 12 12 12 11 9 8 10 10 10 8 8 9 8 7 7 8 9 8 8 8 5 5 8 4 5 6 7 8 7 9 7 7 10 10 8 7 9 10 13 12 11 13 13 16 19 19 18 17 16 16 16 16 16 16 16 16 16 15 13 12 13 13 12 11 10 9 8 8
10 11 11 11 11 12 12 12 12 10 10 8 9 8 7 8 8 10 8 6 7 8 8 9 11 8 8 4 6 1 2 4 7 8 8 11 10 8 8 10 10 7 7 9 8 9 10 11 13 14 14 17 17 17 16 17 16 16 16 16 16 16 16 14 13 14 13 13 13 12 10 10 10 9
10 10 11 11 11 13 15 17 14 12 11 8 9 9 8 9 9 9 8 7 7 8 9 10 9 9 9 9 8 8 8 10 14 4 7 10 10 6 6 9 8 8 7 8 8 8 8 9 8 8 8 10 13 14 15 12 15 16 16 16 17 17 16 15 15 14 14 14 14 12 11 10 10 9
10 12 11 12 16 17 18 17 17 17 16 16 13 11 9 10 10 10 9 8 8 8 10 11 11 11 12 12 11 11 11 9 6 6 6 9 10 3 8 9 7 6 7 9 9 10 7 8 9 8 10 9 10 8 9 10 12 14 17 18 18 17 16 16 15 15 14 14 14 13 12 11 11 10
11 11 12 12 14 15 15 15 18 18 18 18 18 18 16 13 12 11 10 9 9 9 11 11 10 11 13 13 11 11 11 7 10 10 7 8 5 7 8 13 5 6 10 9 9 11 8 8 10 9 10 9 9 9 10 14 17 17 18 19 19 18 17 16 16 15 15 15 14 13 12 12 11 11
11 11 11 10 10 11 13 13 13 15 18 19 19 20 19 18 18 17 14 11 9 10 12 12 12 11 12 13 10 10 9 11 7 7 6 7 9 10 10 11 11 4 9 9 9 12 6 6 9 10 10 9 9 11 14 17 18 18 18 19 19 19 18 17 17 16 16 15 15 14 13 13 12 10
12 11 11 11 10 11 16 14 12 11 12 15 19 19 18 18 19 20 20 18 15 11 12 13 14 12 11 12 12 10 9 4 6 6 8 9 9 11 11 12 12 5 8 7 8 11 7 7 9 11 10 9 9 11 14 17 18 18 19 19 19 19 18 18 17 16 17 16 16 14 14 14 12 11
12 13 12 11 12 11 10 10 12 11 12 11 10 11 11 13 17 20 22 20 20 17 15 13 15 15 9 14 13 10 6 7 11 9 12 10 11 12 14 16 12 4 9 10 5 7 7 8 7 11 11 8 9 9 13 18 18 19 19 19 19 19 18 18 17 17 17 16 16 15 15 14 13 11
13 12 12 12 13 12 11 11 12 11 12 11 11 12 12 12 14 14 15 14 13 14 14 15 17 18 13 13 14 11 8 12 12 12 14 14 13 11 9 10 8 7 7 7 6 12 11 6 9 12 10 8 9 9 12 18 19 19 19 19 19 19 19 18 18 17 17 17 16 16 15 14 13 12
12 12 12 12 13 13 12 14 17 15 12 11 13 14 13 12 12 14 14 16 16 15 15 15 17 17 17 16 15 14 12 11 10 10 10 8 7 5 10 14 9 10 6 9 10 11 12 7 11 11 9 8 9 9 9 15 20 19 19 19 19 19 19 18 18 18 18 17 17 17 16 14 13 12
12 12 12 12 12 12 13 15 16 16 15 13 14 14 14 13 13 15 8 14 19 20 23 25 25 25 24 23 23 23 23 17 12 7 8 14 8 9 13 16 11 9 5 7 12 13 13 10 12 11 7 9 10 10 10 10 16 20 19 19 20 19 18 18 18 19 18 18 18 17 16 14 13 12
12 13 18 16 13 13 13 15 16 17 14 13 14 14 14 15 15 13 7 7 10 20 25 25 26 26 25 24 26 26 26 24 14 11 16 16 8 14 15 15 11 2 5 14 15 11 17 12 6 8 4 4 6 10 10 10 10 16 17 20 20 19 19 19 19 19 18 18 18 18 16 14 12 7
11 12 13 17 17 15 15 17 16 17 15 13 14 14 14 15 16 12 9 12 10 5 7 12 14 15 19 18 18 20 26 24 18 16 18 16 12 15 15 10 3 6 14 16 12 13 14 10 8 9 2 8 6 7 9 9 9 8 8 10 12 17 19 19 19 19 19 19 18 17 16 15 10 6
11 12 12 13 16 19 20 19 18 17 18 16 14 12 13 14 16 13 11 7 1 3 11 14 10 12 13 13 13 15 15 16 16 18 18 17 15 15 14 10 13 17 15 3 14 14 11 9 11 10 10 5 5 3 3 6 8 9 9 9 9 13 15 16 15 20 20 19 19 17 16 14 11 6
12 11 11 10 13 18 19 20 20 19 18 18 15 14 13 14 15 11 5 9 13 7 15 12 8 9 11 12 10 10 11 12 12 13 16 16 15 15 14 13 15 18 17 13 16 13 15 12 10 7 7 9 7 1 4 7 8 9 11 12 10 8 9 9 7 9 14 18 18 18 16 14 15 10
10 11 10 10 13 18 19 19 18 16 13 14 10 13 17 19 16 10 4 5 5 9 14 11 10 12 13 12 9 10 10 11 12 12 12 13 15 15 16 17 17 17 20 16 21 17 15 13 15 11 10 11 14 11 4 4 6 8 8 10 11 11 11 10 9 9 9 8 8 9 11 13 14 15
11 10 10 11 14 12 12 11 11 11 11 8 11 17 15 13 11 7 2 4 9 9 13 11 11 13 12 12 12 11 11 12 13 13 12 13 13 15 16 19 19 21 21 15 15 18 17 15 11 14 16 15 14 10 10 10 6 7 6 7 9 9 10 11 11 10 10 9 8 13 12 11 12 13
10 10 7 2 5 4 4 4 5 6 5 7 9 8 11 11 7 3 4 5 7 11 14 11 12 13 14 12 12 12 11 12 13 14 12 12 13 15 15 18 21 22 22 19 16 16 16 15 13 16 18 16 15 13 13 10 4 10 11 6 6 9 10 11 11 10 9 9 7 7 6 6 6 7
3 5 7 6 5 4 4 4 4 2 2 6 8 9 9 6 3 3 7 9 8 9 10 10 11 11 12 12 12 11 10 12 13 12 12 12 12 13 14 15 16 17 17 16 17 16 16 16 16 15 15 15 15 15 15 13 10 9 11 12 7 7 10 10 10 11 10 8 8 8 8 8 7 7
5 4 5 2 2 1 2 3 3 4 3 4 5 7 5 2 3 4 6 7 8 9 9 9 10 11 9 9 10 9 9 10 14 13 12 11 12 11 12 12 13 15 16 17 17 16 16 17 17 16 15 15 15 16 16 12 9 10 13 13 10 6 4 10 10 9 10 10 9 8 7 7 8 8
9 5 2 2 3 4 5 4 5 4 3 1 1 0 0 1 1 3 5 8 9 9 8 8 9 9 10 10 11 11 11 12 13 11 11 12 14 11 12 13 15 15 15 16 16 16 15 16 16 16 16 16 15 17 14 13 12 12 14 14 15 14 10 10 9 9 9 9 8 6 6 5 5 6
3 2 2 1 1 2 3 4 4 4 4 4 5 5 5 5 5 4 3 1 4 6 7 8 8 9 10 11 12 11 11 13 14 13 12 12 14 12 11 14 16 14 13 12 13 15 16 17 17 16 18 18 19 17 10 12 14 15 14 12 13 10 13 14 12 10 10 9 7 7 7 7 7 6
3 4 4 4 4 4 4 4 4 4 4 4 4 3 4 4 3 3 2 1 2 4 5 7 9 10 10 11 12 12 12 13 13 13 13 13 13 14 12 16 15 14 14 11 9 11 14 16 15 15 13 12 13 10 11 11 10 12 15 13 11 9 10 12 13 12 10 9 8 8 7 5 6 7
5 4 5 4 4 4 4 4 4 4 4 4 5 4 3 3 3 3 2 1 1 3 5 6 7 7 8 10 9 10 9 13 13 13 12 15 13 14 14 14 14 12 14 15 14 13 13 15 15 15 12 8 3 8 14 16 13 11 11 14 13 11 9 11 11 13 13 12 11 9 7 6 5 6
5 5 6 5 4 4 5 5 4 4 4 4 4 5 4 3 5 5 4 4 4 4 4 4 4 5 7 8 8 10 10 12 11 12 11 11 12 12 12 12 13 11 11 11 11 10 10 9 6 4 5 5 4 6 9 2 12 11 8 9 10 10 8 9 11 11 10 7 9 10 7 6 6 5
6 5 6 5 5 4 5 4 3 3 3 2 3 5 6 6 4 4 5 6 5 6 6 6 6 6 6 7 8 9 9 10 10 11 13 11 11 10 10 11 12 12 12 11 11 10 9 9 10 11 8 6 7 6 2 11 5 10 16 11 9 10 8 8 8 9 9 8 8 9 8 7 7 6
7 5 6 6 4 5 5 3 3 2 3 4 4 4 4 5 5 4 4 5 4 4 5 5 6 7 7 8 9 9 9 9 12 12 12 12 11 11 11 11 13 13 11 11 10 10 7 8 8 9 9 8 11 12 6 3 11 13 6 13 9 8 10 9 10 7 5 7 7 7 7 7 6 6
7 6 6 5 4 4 4 3 3 3 4 4 3 2 2 3 3 4 4 4 5 4 5 5 6 7 7 7 9 10 11 10 10 10 11 11 11 10 10 8 6 6 7 8 7 5 4 4 3 2 3 10 11 10 9 6 7 9 14 8 13 10 8 9 8 6 4 3 6 5 5 6 6 6
6 6 5 5 3 4 4 4 4 4 3 3 2 2 2 3 4 4 5 5 5 6 6 6 7 7 8 8 8 9 10 11 12 11 12 11 9 9 6 4 5 6 7 7 7 7 8 8 8 9 12 12 11 7 7 11 11 9 11 14 9 11 9 9 7 4 5 3 4 5 5 4 8 10
5 5 5 5 3 3 4 4 2 1 0 0 1 1 0 2 3 3 4 4 5 5 5 6 7 7 7 7 8 8 8 9 9 9 10 9 9 6 4 5 6 7 8 9 9 9 9 9 13 15 16 16 14 12 10 11 9 9 9 7 9 10 8 9 9 8 4 5 6 7 6 5 5 1
5 5 4 4 3 3 3 2 2 2 0 0 0 0 1 1 2 3 3 4 4 5 5 6 6 6 7 7 7 7 8 8 9 9 9 9 9 8 7 7 7 7 10 10 10 10 10 9 14 22 20 15 15 13 13 13 11 8 8 6 4 10 15 11 9 9 6 5 7 7 7 7 6 4
6 5 3 3 4 3 2 3 2 2 1 0 2 2 2 2 2 3 4 4 4 4 4 5 6 6 6 6 6 7 6 7 7 8 8 8 8 7 8 7 7 7 10 10 9 8 6 6 9 12 12 12 9 11 12 13 12 9 7 5 5 5 5 9 9 5 9 10 6 5 4 4 4 5
5 4 4 3 3 3 3 2 2 1 1 2 3 2 2 3 3 5 5 5 5 5 5 5 5 5 6 6 6 6 6 7 8 7 8 8 7 7 7 8 9 10 9 7 6 5 5 6 7 8 7 7 7 13 14 12 11 10 7 7 5 4 3 4 6 6 7 13 12 10 8 7 6 5
4 4 3 2 2 2 3 2 2 1 2 2 1 1 4 4 5 4 4 4 5 5 4 4 4 5 6 6 6 6 6 6 6 7 7 7 8 8 8 8 9 8 7 6 5 6 6 6 5 4 9 9 8 12 12 11 11 9 9 7 5 6 5 4 2 3 3 1 3 2 7 11 7 10
3 3 2 1 2 2 2 1 2 2 2 1 1 2 2 3 4 3 3 4 4 3 3 3 3 4 4 5 6 7 6 6 6 6 6 7 7 7 8 8 8 7 6 4 3 4 4 4 4 5 8 8 7 8 8 10 9 9 8 8 9 8 7 7 6 6 4 2 8 9 3 4 8 10
Wind_Direction
214 212 204 210 224 230 217 221 218 211 194 192 186 179 176 176 187 225 251 255 234 273 199 224 246 205 212 217 215 216 219 223 214 215 220 222 225 227 225 226 229 231 232 233 233 233 234 236 238 240 243 244 244 245 245 246 249 251 253 252 250 249 248 244 240 236 241 241 243 251 263 277 283 288
208 216 216 210 227 234 217 225 219 209 206 199 195 203 193 168 192 194 221 269 211 243 260 212 242 213 213 209 214 210 222 220 213 215 220 222 224 227 225 226 228 230 232 234 235 236 236 237 239 241 243 245 246 245 246 246 246 245 247 248 244 241 240 240 235 233 232 231 232 235 244 257 267 277
203 214 223 220 227 223 225 231 229 224 204 209 202 212 194 196 194 187 179 255 278 190 230 240 230 215 214 211 215 219 225 219 211 218 220 224 226 226 229 229 229 229 231 234 235 236 237 238 239 242 243 245 245 246 245 245 245 245 246 245 240 235 235 236 230 224 222 220 222 225 234 247 260 267
208 214 223 226 228 226 219 233 231 226 217 198 199 206 202 207 205 179 184 208 259 202 216 239 245 226 219 206 214 226 231 225 217 221 223 226 228 228 231 231 230 230 231 232 234 236 236 237 238 240 243 244 244 245 243 241 241 241 242 241 236 231 230 230 224 218 219 216 214 219 230 243 249 260
210 214 221 227 228 221 224 231 232 232 227 205 205 199 194 213 199 182 196 219 258 281 230 239 245 255 208 238 209 225 228 229 223 223 228 226 224 225 227 229 229 228 229 231 233 235 236 237 237 238 240 242 243 243 242 239 237 236 237 237 232 228 227 224 219 218 216 214 212 217 228 235 242 253
216 213 220 231 229 214 223 232 230 226 225 214 217 214 197 209 211 201 196 229 232 263 262 254 247 265 189 236 197 210 223 232 216 222 227 225 221 226 227 228 233 228 227 228 231 233 235 236 237 238 238 240 240 241 241 239 234 231 232 232 229 225 223 221 217 218 218 213 211 217 224 228 234 249
213 216 221 230 227 214 223 232 236 228 227 217 219 227 203 214 216 202 207 213 241 249 261 209 237 225 210 209 230 221 228 231 215 223 228 226 225 226 226 227 233 229 225 227 228 230 232 234 235 236 237 237 238 239 239 237 233 229 227 227 226 222 219 219 217 217 215 213 212 217 219 220 229 237
211 218 222 229 223 217 224 232 234 233 225 224 225 231 225 215 223 210 200 219 232 243 255 255 216 231 215 244 244 237 235 234 231 224 237 235 235 232 228 229 234 232 226 225 226 228 230 232 233 235 237 237 236 236 236 235 231 227 223 222 222 220 217 216 217 215 212 213 213 217 215 215 223 224
214 219 223 229 220 216 225 235 234 230 227 228 223 231 231 224 227 213 207 222 223 243 246 261 246 236 241 249 244 207 219 244 244 248 236 231 233 234 233 232 235 240 233 229 229 230 231 232 232 234 235 237 236 236 235 233 229 225 221 219 218 218 217 218 216 213 211 212 213 216 214 214 216 217
215 219 225 229 221 219 223 232 231 226 228 227 228 232 231 226 219 222 223 216 226 231 249 255 273 230 238 272 253 213 202 224 245 252 249 248 238 233 241 235 234 231 230 225 230 232 234 235 234 234 236 237 237 236 235 232 227 223 220 217 216 216 218 219 215 210 212 211 213 213 211 209 209 211
218 221 225 226 220 222 226 232 232 228 226 223 228 228 230 227 219 226 223 214 223 232 248 258 250 265 244 214 259 239 204 222 224 236 249 254 234 225 231 244 236 230 239 238 229 225 221 224 226 226 229 233 235 233 233 231 226 221 218 216 214 216 218 218 213 210 211 211 213 212 207 205 202 206
222 223 226 226 221 223 227 229 234 227 229 224 233 231 227 227 226 232 228 215 220 232 241 246 259 245 256 240 239 250 166 237 257 229 225 248 247 229 231 233 237 227 226 242 240 231 230 234 232 230 229 232 233 230 230 230 226 221 217 215 215 215 217 214 211 211 209 210 212 210 205 203 206 204
225 227 229 229 228 225 227 228 231 228 222 220 228 231 217 225 227 234 231 220 218 233 238 251 248 254 250 247 246 241 223 223 240 205 192 240 251 242 244 247 226 226 222 240 243 237 215 223 223 217 220 224 225 230 224 229 224 220 216 215 215 215 213 210 210 212 208 208 210 209 204 202 205 207
225 229 230 233 231 228 228 228 230 231 228 223 223 226 212 223 227 232 233 226 224 231 239 242 246 249 249 247 239 243 240 239 253 244 214 229 250 247 256 267 235 202 207 235 242 242 219 213 228 214 223 223 212 218 207 217 216 217 213 214 214 212 210 206 209 211 205 204 206 206 203 202 205 205
228 228 229 235 236 234 233 233 231 231 230 229 230 232 226 217 217 229 229 232 224 230 238 243 241 243 252 250 246 244 249 236 229 236 229 237 250 235 247 261 267 181 194 215 237 251 223 198 222 225 225 219 213 211 216 214 215 215 212 212 210 208 206 204 209 206 202 201 202 202 199 202 204 204
231 232 232 232 234 234 232 231 232 232 232 232 232 233 233 234 231 225 222 226 229 228 238 243 239 242 246 254 246 251 245 245 243 241 235 227 229 237 239 246 250 222 179 204 219 248 222 183 215 232 227 216 214 214 212 212 213 213 213 211 208 206 203 203 204 202 199 198 198 198 197 200 203 200
231 233 234 236 234 236 233 234 236 236 235 230 233 237 239 241 240 241 238 231 231 232 237 242 250 237 246 254 250 238 247 235 240 227 230 232 232 233 240 246 247 225 187 192 221 243 228 180 213 228 232 214 215 219 215 213 211 211 211 208 206 204 201 199 198 197 197 196 194 193 196 198 199 195
230 230 231 235 239 237 234 232 232 235 237 241 234 229 229 235 241 241 241 238 240 244 244 245 250 250 224 245 250 242 219 219 233 226 237 229 234 233 235 241 245 215 168 195 206 254 237 203 209 229 234 210 218 218 213 209 211 210 208 206 206 202 198 195 194 194 194 192 190 190 195 197 195 193
230 230 229 233 239 239 233 231 229 230 232 235 241 240 233 229 235 237 237 230 230 236 240 245 249 256 247 245 251 249 222 225 232 226 234 233 233 239 258 269 240 233 188 183 168 246 242 167 209 233 229 209 216 215 215 209 209 208 204 204 204 200 195 193 192 191 191 190 187 190 193 197 192 196
233 231 229 232 237 239 237 233 225 225 228 233 240 242 243 243 240 240 231 227 227 232 240 241 245 249 249 247 250 247 238 234 234 238 244 251 243 233 248 253 237 233 179 183 198 239 249 185 207 231 219 197 214 213 212 210 208 207 204 202 201 198 193 191 188 189 190 188 187 187 194 192 191 201
236 234 230 230 236 238 238 234 224 222 218 234 238 243 246 244 246 250 232 210 219 227 237 240 242 246 249 249 251 252 247 241 233 226 245 244 214 224 245 250 245 238 141 219 218 227 249 216 203 227 212 196 209 211 210 208 204 205 203 201 199 194 191 188 186 189 188 187 186 187 192 188 194 204
241 239 234 231 234 238 241 232 223 219 209 229 236 241 248 250 249 252 233 229 218 222 231 236 240 244 247 248 249 251 250 245 232 228 240 245 208 233 237 249 251 35 153 225 208 220 235 239 190 224 233 197 227 212 208 200 200 201 203 200 195 191 188 187 186 185 185 186 187 186 187 188 194 183
241 244 240 233 233 237 240 234 227 219 208 227 233 235 242 250 253 250 231 231 232 236 263 255 249 256 253 249 248 251 249 247 237 232 241 251 235 241 243 245 332 271 239 232 180 215 241 227 216 194 201 236 242 230 210 190 186 183 191 195 197 193 186 186 183 183 182 186 186 186 183 190 168 174
240 241 244 240 233 234 240 240 234 226 212 223 237 235 240 248 256 251 243 245 30 353 260 255 246 248 254 250 243 247 253 252 237 234 236 239 240 243 249 219 218 238 249 221 165 213 246 217 226 198 213 241 272 289 221 217 201 188 180 180 185 190 187 183 184 184 179 186 185 185 184 180 162 168
241 242 241 245 237 232 233 235 236 233 226 224 237 242 243 245 255 277 277 81 93 246 261 271 276 268 260 253 249 249 250 248 247 236 232 234 233 233 237 229 226 241 242 228 177 196 231 215 218 183 213 227 225 191 239 228 215 196 184 184 183 165 168 177 172 181 189 186 186 183 186 172 175 174
239 241 239 242 238 235 235 235 238 243 245 243 247 256 256 262 276 289 331 112 108 256 268 268 267 264 264 268 266 262 257 255 254 245 238 230 227 224 225 224 227 237 243 228 186 204 222 225 210 189 190 214 231 206 174 216 213 216 194 185 179 168 171 163 166 174 172 179 188 178 187 175 184 191
236 238 240 242 245 252 261 265 262 253 244 237 235 247 268 287 299 302 273 154 144 245 262 261 268 273 277 281 271 261 261 258 257 254 244 239 229 223 224 223 228 234 241 236 197 209 213 229 198 193 207 208 216 203 211 211 208 168 177 176 173 168 173 159 168 172 172 176 184 179 191 187 188 200
234 241 248 305 32 20 347 314 297 273 239 235 254 254 252 257 262 248 125 164 148 232 259 261 262 264 265 267 268 265 260 261 264 261 258 250 238 234 229 227 228 232 237 236 222 211 214 222 213 208 207 202 204 198 214 213 174 176 173 169 154 160 166 168 167 165 168 170 167 169 173 193 187 180
253 68 68 45 36 25 25 32 26 23 235 234 244 253 258 257 216 175 161 182 190 223 244 250 254 259 258 258 263 272 278 278 277 275 273 264 258 251 247 240 234 234 236 235 230 220 216 217 218 210 210 211 205 203 204 199 173 176 169 154 170 187 170 163 157 160 165 165 174 171 186 191 182 176
330 335 355 356 332 345 2 337 319 311 303 286 266 258 249 227 207 158 163 181 197 227 236 241 252 261 276 278 279 282 282 281 275 277 276 276 269 259 257 256 247 240 238 236 232 228 222 221 221 214 212 211 208 209 208 191 189 181 173 173 163 129 171 164 161 162 160 170 173 180 192 184 183 164
265 277 296 326 290 268 268 252 250 257 289 306 315 4 201 207 203 180 167 186 204 227 249 263 268 277 277 285 288 282 283 278 275 272 272 274 272 271 265 261 260 251 241 234 231 228 227 225 223 214 214 213 212 219 206 192 180 166 178 175 160 165 176 170 167 161 165 160 167 175 170 169 171 181
241 253 259 308 16 68 64 59 59 52 33 34 27 27 33 23 15 14 360 261 229 244 261 273 277 278 281 282 283 288 286 282 283 285 283 278 280 273 273 265 260 258 256 241 234 228 224 223 221 217 217 210 211 211 192 192 185 179 174 174 175 164 152 167 165 170 157 143 142 173 177 172 172 175
114 112 91 82 63 54 67 58 51 39 27 25 21 32 27 19 25 40 48 31 320 307 307 299 302 302 309 301 301 300 295 291 292 294 293 287 284 286 271 268 271 267 263 253 233 228 224 230 232 235 231 229 222 193 175 193 193 173 164 171 164 161 170 169 163 152 138 142 162 160 169 180 174 174
117 111 101 85 90 74 68 64 46 32 25 13 6 18 29 24 34 26 22 1 285 263 253 259 270 278 284 286 289 288 284 289 287 283 280 286 286 284 284 283 280 276 266 256 242 231 228 223 220 219 217 216 220 190 190 187 176 176 174 160 160 157 161 156 147 142 154 163 155 152 157 178 196 182
101 117 104 94 84 83 80 70 51 34 31 21 6 359 9 32 20 8 359 346 319 297 289 271 268 268 274 278 281 283 286 285 282 289 284 276 275 270 275 279 283 286 287 285 269 249 240 237 207 122 91 115 99 30 39 79 172 151 143 147 152 131 135 142 141 146 141 131 139 148 152 157 179 188
85 96 107 97 85 88 77 66 61 49 50 29 17 1 3 6 3 355 347 335 333 332 329 327 318 312 301 299 294 290 286 286 288 291 296 292 285 276 266 263 268 269 269 275 275 257 238 213 176 170 155 139 148 112 129 24 41 172 147 146 129 123 125 128 131 127 127 128 138 141 153 167 181 182
106 98 97 98 88 84 91 98 81 60 37 34 29 16 358 343 339 334 326 320 328 330 327 321 328 329 326 320 315 310 307 305 306 302 297 295 286 282 280 274 267 266 266 266 265 256 198 186 177 176 165 159 166 172 129 63 46 26 122 126 114 114 122 117 107 103 124 127 128 143 149 150 177 194
113 108 104 103 108 107 111 105 85 56 33 25 23 1 343 322 321 326 324 342 347 344 342 343 337 333 331 331 332 329 325 323 319 318 314 311 306 294 289 300 327 337 344 358 2 11 42 33 41 348 193 186 170 126 116 91 87 50 38 89 119 113 101 107 107 131 105 82 135 141 118 138 170 187
109 119 119 120 119 122 96 80 67 54 22 3 358 348 325 322 333 340 351 352 346 350 347 349 350 345 338 339 337 333 332 334 338 338 334 328 325 320 330 353 38 36 55 43 34 34 52 70 72 79 83 69 59 51 81 104 87 84 62 65 97 110 123 117 111 107 125 119 91 85 60 63 77 91
105 103 116 115 112 93 80 81 88 64 327 292 296 285 298 357 351 347 352 353 354 354 357 351 343 343 345 343 341 337 335 338 338 339 342 336 329 338 10 40 60 68 65 63 65 65 72 83 100 101 96 94 98 95 92 91 95 88 91 87 120 125 126 129 135 146 162 178 140 134 122 100 121 272
118 109 89 97 98 96 110 126 150 156 169 240 209 146 51 13 18 7 357 3 1 6 1 353 349 346 341 341 342 342 339 340 344 349 352 353 354 354 14 44 53 59 79 73 74 78 88 104 109 107 106 109 112 115 100 92 100 133 140 146 119 139 149 149 148 158 160 164 154 148 147 155 146 138
114 108 116 118 122 129 143 149 151 143 179 167 82 60 37 34 28 25 21 14 12 11 7 358 349 341 342 342 341 345 350 349 349 355 1 4 357 356 10 28 53 52 70 69 65 70 58 49 82 88 102 111 120 114 117 128 130 115 82 67 62 39 139 158 155 146 156 149 137 123 109 75 87 128
112 122 127 145 136 136 131 129 158 166 113 74 74 64 69 37 32 30 21 16 7 9 1 346 342 342 343 343 346 349 358 6 4 6 10 11 9 8 11 17 36 45 52 58 47 44 38 40 53 65 69 77 87 95 96 95 93 96 102 117 129 110 83 79 102 113 166 176 162 162 167 155 139 172
122 116 131 144 135 130 141 139 113 98 77 63 72 79 67 61 45 27 21 17 10 357 337 336 338 353 352 350 347 357 9 7 10 19 17 12 17 20 25 33 42 48 44 39 38 29 25 32 18 56 84 77 84 91 99 98 100 111 124 126 121 131 151 146 96 41 56 189 283 86 153 158 161 172
110 108 121 168 171 151 127 121 89 82 67 32 40 60 55 60 55 32 17 10 1 340 336 341 356 359 2 1 6 6 354 357 9 17 27 31 31 28 25 29 37 38 37 19 49 51 37 37 16 40 73 68 70 100 111 107 112 118 118 130 143 152 151 152 156 156 182 225 7 357 269 80 74 93